Terminal Aerodrome Forecast
Issued by NWS Jackson, MS

Home | Current Version | Previous Version | Text Only | Print | Product List | Glossary On
Versions: 1 2 3 4 5 6 7 8 9 10 11 12 13 14
000
FTUS44 KJAN 140500
TAFGLH
TAF
KGLH 140520Z 1406/1506 00000KT P6SM FEW050
     FM141000 21003KT 6SM BR SCT002
     FM141400 23009KT P6SM SCT030 SCT050
     FM142000 22007KT P6SM VCTS BKN050CB
     FM150300 24005KT 6SM -TSRA OVC040CB=

USA.gov is the U.S. government's official web portal to all federal, state and local government web resources and services.